Location: Grange Verzio
(44.5000°N, 6.9833°E)
Time: 05:50:01
(UTC+00:00)

Cosmos 1244 Rocket - Pass Details

Date: 01 February 2023
Orbit: 953 x 998 km, 83.0° (Epoch: 21 March)

Event Time Altitude Azimuth Distance (km) Brightness Sun altitude
Rises 18:10:21 0° 353° (N) 3,726 7.5 -16.2°
Reaches altitude 10° 18:12:54 10° 355° (N) 2,770 6.9 -16.6°
Maximum altitude 18:19:17 76° 81° (E) 1,021 4.4 -17.7°
Drops below altitude 10° 18:25:32 10° 167° (SSE) 2,724 6.8 -18.9°
Sets 18:28:02 0° 169° (S) 3,661 7.5 -19.3°
